04:47
Airports
History
Links
Donate
Help keep this website running!
PayPal
Bitcoin
This page is community maintained. The information is intended for PC simulator navigation or reference.
Always use approved charts for navigation.
EHHO
Hoogeveen
Hoogeveen (EHHO)
Hoogeveen, Drenthe, Netherlands (7903)
(C)
Lat/Lng:52° 43' 49.55" N / 6° 31' 27.37" E
52.730431 / 6.52427
Elevation:42'ft / 13mMSL
ID / ICAO:EHHO
Runways:1
Longest:10-28
Grass 1,094m / 3,591ft
Controlled:Yes
Nearby Weather04:25 GMT 2017-12-12
Nearby weather at EHGG, Eelde located 27.2 nautical miles from EHHO
Altimeter: 29.29
Visibility: 6.2 statute miles
Wind: 8 knots (from 280°)
Temp: 2°c / 36°f
Humidity: %

METAR: EHGG 120425Z AUTO 28008KT 250V320 9999 SCT032 BKN039 OVC048 02/M00 Q0992 RDD///////

(Powered by phpweather)
Nearby VORs <50NM
Nearby NDBs
Runway 10 / 28
Dimensions:1094.4 x 45.1m 3591' x 148'ft
Surface:Grass
Runway 10 [A]Runway 28 [B]
Heading:093°TH 273°TH
Lat:
Lng:
52° 43' 50.79"N
6° 30' 57.98"E
52° 43' 48.31"N
6° 31' 56.77"E
ALS:RAIL
User Notes and Comments
52° 43' 49.55" N / 6° 31' 27.37" E
Distance To
Airport ID:
Nearby Airports
4 Dalfsen Gliders 20.3 NM
EHDS SSW 204°
4 Voorst Sport 25.3 NM
EHDV W 260°
(C) Eelde 27.2 NM
EHGG ( WX ) N
(C) Drachten 31.5 NM
EHDR NNW 328°
4 Emmeloord 32.5 NM
EHNP W 269°
(C) Nordhorn-Lingen 33.5 NM
EDWN SE 124°
(C) Meppen 33.6 NM
ETWM E 90°
VFR Chart
Flight Planning at SkyVector.com